DW3738 Weather Reports


time (UTC)temp
F
wind
direction
speed
knots
gust
knots
rain 1hr
in
rain 24hr
in
rain mn
in
humidity
%
barometer
mb
20260906083100 70 196 0.0 0.0 0.00 0.00 0.00 97 1010.0
20260906081558 70 196 0.0 0.0 0.00 0.00 0.00 97 1009.9
20260906080057 71 196 0.0 0.0 0.00 0.00 0.00 97 1009.9
20260906074556 71 196 0.0 0.0 0.00 0.00 0.00 97 1009.8
20260906073058 71 196 0.0 0.0 0.00 0.00 0.00 97 1009.6
20260906071555 71 196 0.0 0.0 0.00 0.00 0.00 97 1009.6
20260906070053 71 196 0.0 0.0 0.00 0.00 0.00 97 1009.9
20260906064555 71 196 0.0 0.0 0.00 0.00 0.00 97 1009.8
20260906063053 71 196 0.0 0.0 0.00 0.00 0.00 97 1010.1
20260906061550 71 196 0.0 0.0 0.00 0.00 0.00 96 1010.2
20260906060047 71 196 0.0 0.0 0.00 0.00 0.00 96 1010.3
20260906054547 71 196 0.0 0.0 0.00 0.00 0.00 96 1010.4
20260906053047 71 196 0.0 0.0 0.00 0.00 0.00 95 1010.7
20260906051544 71 196 0.0 0.0 0.00 0.00 0.00 95 1010.7
20260906050046 71 196 0.0 0.0 0.00 0.00 0.00 94 1010.8
20260906044543 72 196 0.0 0.0 0.00 0.00 0.00 94 1010.8
20260906043040 72 196 0.0 0.0 0.00 0.00 0.00 93 1010.8
20260906041538 72 196 0.0 0.0 0.00 0.00 0.00 93 1010.9
20260906040035 72 196 0.0 0.0 0.00 0.00 0.00 92 1011.2
20260906034534 72 196 0.0 0.0 0.00 0.00 0.00 91 1011.3
20260906033033 73 196 0.0 0.0 0.00 0.00 0.00 90 1011.2
20260906031531 73 196 0.0 0.0 0.00 0.00 0.00 90 1011.5
20260906030029 74 196 0.0 0.0 0.00 0.00 0.00 88 1011.4
20260906024527 74 196 0.0 0.0 0.00 0.00 0.00 87 1011.1
20260906023028 75 196 0.0 0.0 0.00 0.00 0.00 85 1010.8
20260906021537 75 209 0.0 0.0 0.00 0.00 0.00 84 1010.7
20260906020026 76 153 0.0 0.0 0.00 0.00 0.00 82 1011.0
20260906014527 76 279 0.0 0.0 0.00 0.00 0.00 80 1010.8
20260906013035 77 223 0.0 0.0 0.00 0.00 0.00 79 1010.7
20260906011528 78 229 0.9 0.0 0.00 0.00 0.00 78 1010.7
20260906010024 78 151 0.0 0.0 0.00 0.00 0.00 77 1010.8
20260906004523 78 196 0.0 0.0 0.00 0.00 0.00 77 1010.6
20260906003024 79 207 0.0 0.0 0.00 0.00 0.00 77 1010.3
20260906001522 80 200 0.9 0.0 0.00 0.00 0.00 75 1010.0
20260906000024 81 317 0.0 0.0 0.00 0.00 0.00 76 1010.0
20260905234521 83 317 0.0 0.0 0.00 0.00 0.00 73 1009.9
20260905233022 84 317 0.0 0.0 0.00 0.00 0.00 71 1009.5
20260905231521 85 317 0.0 0.0 0.00 0.00 0.00 70 1009.2
20260905230020 85 317 0.0 0.0 0.00 0.00 0.00 71 1009.2
20260905224527 86 317 0.0 0.0 0.00 0.00 0.00 66 1009.3
20260905223020 86 16 0.9 0.0 0.00 0.00 0.00 66 1009.2
20260905221519 86 288 1.7 0.0 0.00 0.00 0.00 67 1009.1
20260905220018 86 304 1.7 0.0 0.00 0.00 0.00 66 1009.2
20260905214518 85 279 0.9 0.0 0.00 0.00 0.00 66 1009.1
20260905213017 82 263 0.0 0.0 0.00 0.00 0.00 76 1009.5
20260905211518 81 312 1.7 0.0 0.00 0.00 0.00 75 1010.2
20260905210016 81 331 0.9 0.0 0.00 0.00 0.00 78 1010.2
20260905204517 82 39 0.0 0.0 0.00 0.00 0.00 75 1010.3
20260905203016 84 269 0.9 0.0 0.00 0.00 0.00 67 1010.1
20260905201519 85 321 2.6 0.0 0.00 0.00 0.00 63 1009.9
20260905200023 88 331 3.5 0.0 0.00 0.00 0.00 59 1009.6
20260905194514 95 67 2.6 0.0 0.00 0.00 0.00 50 1009.3
20260905193013 97 202 0.9 0.0 0.00 0.00 0.00 53 1008.7
20260905191511 98 265 1.7 0.0 0.00 0.00 0.00 47 1009.2
20260905190010 98 248 1.7 0.0 0.00 0.00 0.00 47 1009.1
20260905184519 98 323 1.7 0.0 0.00 0.00 0.00 48 1009.4
20260905183007 97 236 2.6 0.0 0.00 0.00 0.00 49 1009.6
20260905181506 98 326 1.7 0.0 0.00 0.00 0.00 47 1009.8
20260905180005 99 355 1.7 0.0 0.00 0.00 0.00 45 1010.1
20260905174600 97 19 2.6 0.0 0.00 0.00 0.00 47 1010.4
20260905173057 98 57 1.7 0.0 0.00 0.00 0.00 49 1010.8
20260905171556 98 9 0.9 0.0 0.00 0.00 0.00 49 1010.9
20260905170055 95 296 1.7 0.0 0.00 0.00 0.00 53 1011.3
20260905164553 98 334 0.9 0.0 0.00 0.00 0.00 50 1011.4
20260905163049 96 320 0.9 0.0 0.00 0.00 0.00 53 1011.6
20260905161546 95 252 0.9 0.0 0.00 0.00 0.00 54 1011.8
20260905160043 94 244 0.9 0.0 0.00 0.00 0.00 60 1011.9
20260905154538 92 325 1.7 0.0 0.00 0.00 0.00 64 1012.1
20260905153048 91 240 1.7 0.0 0.00 0.00 0.00 66 1012.2
20260905151531 91 270 0.9 0.0 0.00 0.00 0.00 68 1012.1
20260905150027 90 208 0.9 0.0 0.00 0.00 0.00 70 1012.2
20260905144526 89 254 0.9 0.0 0.00 0.00 0.00 71 1012.3
20260905143020 87 259 1.7 0.0 0.00 0.00 0.00 75 1012.3
20260905141514 86 198 0.9 0.0 0.00 0.00 0.00 76 1012.4
20260905140011 84 292 1.7 0.0 0.00 0.00 0.00 79 1012.4
20260905134505 84 240 0.9 0.0 0.00 0.00 0.00 80 1012.5
20260905133001 82 254 0.9 0.0 0.00 0.00 0.00 82 1012.6
20260905131614 81 213 0.9 0.0 0.00 0.00 0.00 84 1012.7
20260905130054 80 144 0.9 0.0 0.00 0.00 0.00 87 1012.9
20260905124548 79 197 0.9 0.0 0.00 0.00 0.00 89 1012.9
20260905123045 78 205 0.9 0.0 0.00 0.00 0.00 91 1012.9
20260905121541 76 196 0.9 0.0 0.00 0.00 0.00 93 1012.9
20260905120038 75 200 0.9 0.0 0.00 0.00 0.00 94 1012.7
20260905114540 75 274 0.9 0.0 0.00 0.00 0.00 94 1012.6
20260905113034 75 274 0.0 0.0 0.00 0.00 0.00 94 1012.5
20260905111539 75 274 0.9 0.0 0.00 0.00 0.00 95 1012.1
20260905110030 74 274 0.0 0.0 0.00 0.00 0.00 95 1011.9
20260905104536 75 274 0.0 0.0 0.00 0.00 0.00 94 1011.7
20260905103028 75 274 0.0 0.0 0.00 0.00 0.00 94 1011.5
20260905101527 75 274 0.0 0.0 0.00 0.00 0.00 93 1011.4
20260905100026 75 274 0.0 0.0 0.00 0.00 0.00 92 1011.2
20260905094526 76 274 0.0 0.0 0.00 0.00 0.00 91 1011.2
20260905093025 76 274 0.0 0.0 0.00 0.00 0.00 91 1011.2
20260905091524 76 274 0.9 0.0 0.00 0.00 0.00 91 1011.2
20260905090022 76 274 0.0 0.0 0.00 0.00 0.00 91 1011.4
20260905084521 76 274 0.0 0.0 0.00 0.00 0.00 91 1011.5